SCP
0 0 0 0 0 0 0 0 0 0 0 0 0 0 0 0 0 0 0 0 0 0 0 0 0 0 0 0 0 0 0 0 0 0 0 0 0 0 0 0 0 0 0
0 0 0 0 0 0 0 0 0 0 0 0 0 0 0 0 0 0 0 0 0 0 0 0 0 0 0 0 0 0 0 0 0 0 0 0 0 0 0 0 0 0 0
0 0 0 0 0 0 0 0 0 0 0 0 0 0 0 0 0 0 0 0 0 0 0 0 0 0 0 0 0 0 0 0 0 0 0 0 0 0 0 0 0 0 0
0 0 0 0 0 0 0 0 0 0 0 0 0 0 0 0 0 0 0 0 0 0 0 0 0 0 0 0 0 0 0 0 0 0 0 0 0 0 0 0 0 0 0
0 0 0 0 0 0 0 0 0 0 0 0 0 0 0 0 0 0 0 0 0 0 0 0 0 0 0 0 0 0 0 0 0 0 0 0 0 0 0 0 0 0 0
0 0 0 0 0 0 0 0 0 0 0 0 0 0 0 0 0 0 0 0 0 0 0 0 0 0 0 0 0 0 0 0 0 0 0 0 0 0 0 0 0 0 0
-0 -0 0 0 0 0 0 0 0 0 0 0 0 0 0 0 0 0 0 0 0 0 0 0 0 0 0 0 0 0 0 0 0 0 0 0 0 0 0 0 0 0 0
0 0 -0 0 0 0 0 0 0 0 0 0 0 0 0 0 0 0 0 0 0 0 0 0 0 0 0 0 0 0 0 0 0 0 0 0 0 0 0 0 0 0 0
0 0 -0 0 -0 0 -0 0 0 0 0 0 0 0 0 0 0 0 0 0 0 0 0 0 0 0 0 0 0 0 0 0 0 0 0 0 0 0 0 0 0 0 0
-0 -0 -0 -0 -0 0 -0 0 -0 -0 -0 0 0 0 0 0 0 0 0 0 0 0 0 0 0 -0 -0 0 0 0 0 0 0 0 0 0 0 0 0 0 0 0 0
-0 -0 0 -0 0 -0 0 -0 -0 -0 -0 -0 -0 -0 -0 -0 -0 -0 -0 -0 -0 -0 -0 -0 0 0 0 0 0 0 0 0 0 0 0 0 0 0 0 0 0 0 0
-0 -0 0 0 0 0 -0 -0 -0 -0 -0 -0 -0 -0 -0 -0 -0 -0 -0 -0 0 0 0 0 0 0 0 0 0 0 0 0 0 0 0 0 0 0 0 0 0 0 0
-0 -0 -0 -0 -0 -0 -0 -0 -0 0 -0 -0 -0 0 0 0 0 0 0 0 0 0 0 0 0 0 0 0 0 0 0 0 0 0 0 0 0 0 0 0 0 0 0
0 -0 -0 -0 -0 -0 0 0 0 0 0 0 0 0 0 0 0 0 0 0 0 0 0 0 0 0 0 0 0 0 0 0 0 0 0 0 0 0 0 0 0 0 0
0 0 0 -0 -0 0 0 0 0 0 0 0 0 0 0 0 0 0 0 0 0 0 0 0 0 0 0 0 0 0 0 0 0 0 0 0 0 0 0 0 0 0 0
0 0 0 0 0 0 0 0 -0 -0 -0 -0 0 0 0 0 0 0 0 0 0 0 0 0 0 0 0 0 0 0 0 0 0 0 0 0 0 0 0 0 0 0 0
0 0 0 0 0 -0 -0 -0 -0 0 -0 0 -0 -0 -0 -0 -0 -0 0 0 0 0 0 0 0 0 0 0 0 0 0 0 0 0 0 0 0 0 0 0 0 0 0
0 0 0 0 -0 0 -0 -0 -0 -0 -0 -0 -0 -0 -0 -0 -0 -0 0 0 0 0 0 0 0 0 0 0 0 0 0 0 0 0 0 0 0 0 0 0 0 0 0
0 0 0 0 0 -0 -0 0 -0 -0 -0 -0 -0 -0 0 0 0 0 0 0 0 0 0 0 0 0 0 0 0 0 0 0 0 0 0 0 0 0 0 0 0 0 0
0 0 0 0 -0 -0 0 -0 -0 -0 -0 -0 0 0 0 0 0 0 0 0 0 0 0 0 0 0 0 0 0 0 0 0 0 0 0 0 0 0 0 0 0 0 0
0 0 0 -0 -0 -0 -0 -0 -0 -0 -0 0 0 0 0 0 0 0 0 0 0 0 0 0 0 0 0 0 0 0 0 0 0 0 0 0 0 0 0 0 0 0 0
0 0 0 0 -0 0 -0 -0 -0 -0 -0 -0 -0 0 0 0 0 0 0 0 0 0 0 0 0 0 0 0 0 0 0 0 0 0 0 0 0 0 0 0 0 0 0
0 0 0 0 0 -0 -0 -0 -0 -0 -0 0 0 0 0 0 0 0 0 0 0 0 0 0 0 0 0 0 0 0 0 0 0 0 0 0 0 0 0 0 0 0 0
0 0 0 -0 -0 -0 -0 -0 -0 -0 0 0 0 0 0 0 0 0 0 0 0 0 0 0 0 0 0 0 0 0 0 0 0 0 0 0 0 0 0 0 0 0 0
0 0 0 -0 -0 -0 -0 -0 -0 0 0 0 0 0 0 0 0 0 0 0 0 0 0 0 0 0 0 0 0 0 0 0 0 0 0 0 0 0 0 0 0 0 0
0 0 -0 -0 0 0 -0 -0 -0 0 0 0 0 0 0 0 0 0 0 0 0 0 0 0 0 0 0 0 0 0 0 0 0 0 0 0 0 0 0 0 0 0 0
Wind_Speed_500mb
31 26 23 32 34 38 56 60 62 64 58 50 49 52 58 57 47 43 39 32 33 31 31 33 34 33 32 33 32 30 25 32 35 35 32 33 37 37 31 29 32 27 22
30 20 9 21 15 55 59 51 55 52 47 50 46 45 49 40 46 45 41 39 39 36 34 33 30 31 34 34 32 30 37 39 38 43 37 27 26 30 31 32 25 24 25
39 32 22 19 10 35 52 55 54 49 43 47 45 41 39 43 51 48 42 37 33 34 35 37 36 34 37 38 36 38 43 50 50 48 41 19 19 30 31 33 32 27 25
46 40 43 46 35 49 36 44 43 42 40 38 38 43 41 49 49 45 35 31 30 35 38 39 39 41 42 42 42 43 51 58 61 55 54 49 31 15 13 20 20 23 28
47 46 53 51 72 60 57 41 36 33 32 34 38 36 40 45 41 41 37 35 30 28 32 36 39 40 39 41 45 27 12 9 12 9 17 7 14 14 21 15 24 26 31
40 49 52 20 70 73 69 61 50 49 39 32 24 24 32 35 47 35 32 29 26 27 24 27 24 19 15 8 14 17 19 32 21 14 7 11 16 20 21 18 14 25 25
33 29 31 61 60 59 50 55 67 71 50 45 40 32 27 25 32 37 30 27 20 16 17 6 12 10 8 8 13 12 18 13 19 12 14 11 18 22 23 17 18 25 25
28 37 57 62 55 52 32 39 38 42 54 46 39 33 37 40 31 28 32 26 24 19 18 20 20 14 17 14 12 20 11 12 12 13 7 4 24 34 31 22 20 16 19
41 44 36 31 35 43 47 65 48 40 34 28 42 40 38 35 33 29 31 27 20 27 22 20 24 22 21 23 24 19 21 23 23 24 26 26 25 23 24 20 19 17 17
39 35 31 29 26 24 27 31 34 39 47 39 39 34 36 31 33 26 26 19 25 21 12 15 19 23 21 24 21 20 18 15 14 16 17 19 18 19 20 22 21 19 19
27 26 32 32 36 35 34 29 25 20 20 20 22 23 19 18 18 15 15 14 12 9 12 13 14 15 15 16 14 11 11 12 13 14 16 18 18 15 13 14 13 15 19
22 28 35 38 38 41 43 44 39 32 26 18 18 16 16 15 17 19 18 18 16 13 11 10 12 13 12 11 12 14 14 13 13 16 14 12 11 10 11 11 12 15 19
20 26 31 34 38 41 42 42 40 39 37 31 26 20 16 17 17 17 16 17 16 16 15 13 12 11 10 9 10 11 10 11 14 14 12 12 10 12 12 13 16 18 18
19 22 26 29 32 34 36 38 39 38 36 34 31 28 25 23 21 20 20 18 17 15 14 15 13 14 15 15 15 15 16 15 16 14 13 14 12 14 15 19 24 23 21
16 19 23 26 27 29 32 34 34 35 36 35 34 33 30 27 24 21 18 18 18 19 19 19 19 20 19 19 18 17 17 19 19 18 16 16 14 16 25 27 24 21 21
12 14 17 20 22 26 28 30 32 34 35 35 35 33 31 29 27 26 25 25 25 24 25 25 25 25 24 23 24 25 25 24 22 21 21 18 20 21 25 24 23 23 22
7 10 13 16 18 20 22 26 29 30 30 33 33 33 32 30 29 26 25 23 22 22 22 23 24 25 25 25 26 26 27 26 25 24 23 24 25 27 25 24 24 23 23
6 6 9 13 14 14 18 22 24 25 26 27 30 30 31 32 30 29 29 28 27 26 26 26 27 29 29 29 29 29 28 28 27 27 25 25 27 27 26 25 23 22 22
4 2 3 5 8 12 16 16 17 18 19 19 22 26 29 30 30 28 26 27 27 29 30 32 32 32 30 29 29 28 27 27 26 25 28 30 29 28 28 25 25 23 19
8 8 4 2 8 12 13 14 13 14 18 21 21 22 26 28 29 31 31 32 32 33 35 36 37 37 37 35 33 30 28 27 29 31 31 30 29 26 28 28 26 21 17
9 6 6 6 6 6 9 10 11 11 15 17 18 20 23 26 30 32 35 37 37 38 40 41 42 42 40 37 35 33 33 32 33 32 30 29 29 26 26 27 26 26 21
13 9 7 5 2 4 6 9 13 17 19 22 24 25 27 30 34 37 38 41 44 46 46 47 46 44 43 42 40 39 38 39 37 35 31 29 29 28 27 27 26 28 24
15 12 9 9 7 7 9 13 17 19 20 23 24 26 29 33 38 44 46 49 51 55 56 58 57 52 49 47 47 45 44 42 41 36 33 31 29 30 31 31 30 33 27
16 14 12 6 3 3 8 12 16 22 28 31 33 35 37 39 42 46 51 55 56 61 64 65 68 66 63 56 54 52 49 49 45 35 32 31 29 31 33 30 32 31 29
18 13 10 11 4 2 7 16 25 29 32 33 36 37 39 42 45 47 49 53 54 58 65 70 72 75 79 71 62 56 57 55 47 39 39 38 37 36 34 36 36 35 33
16 18 17 11 7 5 15 22 28 31 35 39 42 46 50 51 52 58 63 57 61 63 67 70 70 73 76 74 71 68 68 58 51 53 51 45 42 42 38 37 39 40 38
Wind_Direction_500mb
311 290 270 265 248 220 217 201 199 203 206 212 216 212 218 216 215 215 218 218 229 246 243 241 234 235 236 240 243 243 257 265 263 258 257 252 253 254 251 250 254 246 246
2 352 271 253 194 191 179 187 201 197 195 204 211 220 221 217 221 221 227 228 225 240 242 241 241 237 245 251 248 256 264 262 255 252 255 254 234 220 252 250 255 245 241
19 33 56 70 18 155 166 173 185 189 202 211 211 219 226 217 224 230 226 231 238 237 237 241 241 242 245 251 252 255 258 258 255 253 247 208 206 215 212 226 238 238 242
37 49 63 65 64 90 130 181 179 181 189 204 208 221 223 222 223 234 230 229 230 233 237 243 244 243 248 254 255 265 269 266 261 260 252 249 242 183 174 237 237 233 238
38 43 55 63 70 70 82 100 117 135 158 190 211 218 218 222 222 217 212 225 229 239 245 244 245 249 256 259 257 240 334 33 330 58 36 45 336 320 273 238 235 240 245
38 41 62 40 66 70 67 82 77 71 76 79 122 163 193 180 205 205 201 212 226 253 256 243 225 226 231 252 257 272 290 313 305 342 339 4 336 306 289 248 238 243 235
23 32 29 58 56 53 58 67 70 59 58 52 73 81 89 92 115 105 135 138 134 150 81 135 72 79 345 335 339 355 351 335 1 6 33 33 294 283 285 273 255 227 238
29 38 42 55 59 62 56 62 71 65 47 47 55 63 67 73 69 71 62 83 81 67 45 15 8 1 8 3 344 19 343 20 9 24 98 212 266 272 272 267 252 239 249
26 35 30 36 55 69 71 71 75 71 67 49 46 49 55 51 50 48 50 43 51 55 35 7 358 341 336 321 317 308 280 280 281 279 277 266 257 253 257 258 260 269 276
40 41 47 48 49 44 41 51 53 71 75 68 63 61 58 51 54 38 49 20 44 45 345 320 300 286 285 288 289 287 286 274 270 268 261 259 256 256 263 264 262 267 254
50 51 57 56 58 56 53 59 65 66 59 30 32 32 27 30 20 8 13 340 353 319 303 297 289 279 273 273 279 280 274 263 253 250 245 252 258 267 276 282 288 282 273
59 53 51 53 54 53 51 51 53 50 55 50 50 40 20 24 21 16 7 357 2 353 343 325 312 300 288 277 271 262 257 255 256 254 248 253 270 287 293 297 302 291 276
61 61 58 53 52 51 51 50 48 45 45 43 46 42 30 29 32 34 24 14 11 6 3 358 351 338 324 317 309 309 304 291 277 272 275 282 299 305 315 318 313 306 291
71 67 61 54 51 52 47 47 45 42 40 37 35 34 29 27 23 17 16 13 15 11 8 6 358 349 348 342 337 328 315 293 282 286 296 304 315 321 320 322 319 306 295
68 54 53 53 54 54 51 47 44 38 35 33 31 30 23 20 19 16 11 4 359 357 355 352 348 342 337 329 320 308 302 298 299 294 292 299 301 310 314 310 302 296 288
82 46 39 40 40 43 40 38 36 36 31 29 28 27 23 18 15 10 4 358 355 353 349 345 339 333 328 321 312 306 301 293 286 285 291 292 302 312 310 305 301 293 284
88 34 39 36 33 34 30 27 25 26 26 24 24 24 21 17 16 12 5 355 348 341 335 328 321 318 316 311 304 298 293 289 286 283 284 293 300 305 304 301 296 291 282
121 63 46 39 32 24 15 11 10 15 19 20 21 21 22 19 16 10 2 355 348 339 331 323 317 313 309 304 301 296 290 288 289 291 296 299 301 299 297 294 292 287 278
144 61 69 51 22 9 6 4 2 10 10 11 11 10 11 11 10 8 3 354 344 334 326 319 311 304 300 293 286 280 275 274 277 283 291 293 294 293 292 288 287 274 267
156 153 169 359 14 20 24 19 13 10 8 10 4 358 357 356 354 352 349 344 339 332 323 316 310 303 299 294 287 279 271 271 283 287 287 289 290 290 291 287 276 270 261
167 165 151 126 81 39 22 20 18 10 10 5 356 348 335 332 332 333 334 332 329 325 321 315 308 302 296 290 282 275 271 276 285 286 288 287 284 277 270 268 267 263 252
164 155 152 164 250 296 336 344 348 357 356 352 345 337 329 324 320 319 316 315 314 312 309 305 299 296 290 286 280 276 275 279 279 282 282 281 281 275 271 266 262 261 260
177 177 188 209 257 333 360 7 2 356 352 347 337 329 325 320 316 314 312 308 304 300 299 297 297 294 291 285 279 271 268 271 274 277 275 275 272 272 270 265 260 259 259
188 198 206 205 135 34 351 349 347 346 341 338 338 335 329 326 320 314 311 307 306 302 300 297 295 294 290 285 279 271 267 264 265 257 262 269 271 273 278 268 264 264 256
197 200 184 145 146 286 342 340 341 340 337 337 334 329 324 320 319 315 315 313 314 308 303 299 294 289 285 285 282 274 263 258 262 253 249 256 264 269 275 275 268 263 256
199 177 160 168 175 328 343 345 338 337 340 341 337 333 329 324 323 324 323 322 320 317 311 306 299 293 286 283 278 274 272 268 251 251 249 252 262 268 273 279 277 271 259
Wind_Speed_850mb
31 26 23 32 34 38 56 60 62 64 58 50 49 52 58 57 47 43 39 32 33 31 31 33 34 33 32 33 32 30 25 32 35 35 32 33 37 37 31 29 32 27 22
30 20 9 21 15 55 59 51 55 52 47 50 46 45 49 40 46 45 41 39 39 36 34 33 30 31 34 34 32 30 37 39 38 43 37 27 26 30 31 32 25 24 25
39 32 22 19 10 35 52 55 54 49 43 47 45 41 39 43 51 48 42 37 33 34 35 37 36 34 37 38 36 38 43 50 50 48 41 19 19 30 31 33 32 27 25
46 40 43 46 35 49 36 44 43 42 40 38 38 43 41 49 49 45 35 31 30 35 38 39 39 41 42 42 42 43 51 58 61 55 54 49 31 15 13 20 20 23 28
47 46 53 51 72 60 57 41 36 33 32 34 38 36 40 45 41 41 37 35 30 28 32 36 39 40 39 41 45 27 12 9 12 9 17 7 14 14 21 15 24 26 31
40 49 52 20 70 73 69 61 50 49 39 32 24 24 32 35 47 35 32 29 26 27 24 27 24 19 15 8 14 17 19 32 21 14 7 11 16 20 21 18 14 25 25
33 29 31 61 60 59 50 55 67 71 50 45 40 32 27 25 32 37 30 27 20 16 17 6 12 10 8 8 13 12 18 13 19 12 14 11 18 22 23 17 18 25 25
28 37 57 62 55 52 32 39 38 42 54 46 39 33 37 40 31 28 32 26 24 19 18 20 20 14 17 14 12 20 11 12 12 13 7 4 24 34 31 22 20 16 19
41 44 36 31 35 43 47 65 48 40 34 28 42 40 38 35 33 29 31 27 20 27 22 20 24 22 21 23 24 19 21 23 23 24 26 26 25 23 24 20 19 17 17
39 35 31 29 26 24 27 31 34 39 47 39 39 34 36 31 33 26 26 19 25 21 12 15 19 23 21 24 21 20 18 15 14 16 17 19 18 19 20 22 21 19 19
27 26 32 32 36 35 34 29 25 20 20 20 22 23 19 18 18 15 15 14 12 9 12 13 14 15 15 16 14 11 11 12 13 14 16 18 18 15 13 14 13 15 19
22 28 35 38 38 41 43 44 39 32 26 18 18 16 16 15 17 19 18 18 16 13 11 10 12 13 12 11 12 14 14 13 13 16 14 12 11 10 11 11 12 15 19
20 26 31 34 38 41 42 42 40 39 37 31 26 20 16 17 17 17 16 17 16 16 15 13 12 11 10 9 10 11 10 11 14 14 12 12 10 12 12 13 16 18 18
19 22 26 29 32 34 36 38 39 38 36 34 31 28 25 23 21 20 20 18 17 15 14 15 13 14 15 15 15 15 16 15 16 14 13 14 12 14 15 19 24 23 21
16 19 23 26 27 29 32 34 34 35 36 35 34 33 30 27 24 21 18 18 18 19 19 19 19 20 19 19 18 17 17 19 19 18 16 16 14 16 25 27 24 21 21
12 14 17 20 22 26 28 30 32 34 35 35 35 33 31 29 27 26 25 25 25 24 25 25 25 25 24 23 24 25 25 24 22 21 21 18 20 21 25 24 23 23 22
7 10 13 16 18 20 22 26 29 30 30 33 33 33 32 30 29 26 25 23 22 22 22 23 24 25 25 25 26 26 27 26 25 24 23 24 25 27 25 24 24 23 23
6 6 9 13 14 14 18 22 24 25 26 27 30 30 31 32 30 29 29 28 27 26 26 26 27 29 29 29 29 29 28 28 27 27 25 25 27 27 26 25 23 22 22
4 2 3 5 8 12 16 16 17 18 19 19 22 26 29 30 30 28 26 27 27 29 30 32 32 32 30 29 29 28 27 27 26 25 28 30 29 28 28 25 25 23 19
8 8 4 2 8 12 13 14 13 14 18 21 21 22 26 28 29 31 31 32 32 33 35 36 37 37 37 35 33 30 28 27 29 31 31 30 29 26 28 28 26 21 17
9 6 6 6 6 6 9 10 11 11 15 17 18 20 23 26 30 32 35 37 37 38 40 41 42 42 40 37 35 33 33 32 33 32 30 29 29 26 26 27 26 26 21
13 9 7 5 2 4 6 9 13 17 19 22 24 25 27 30 34 37 38 41 44 46 46 47 46 44 43 42 40 39 38 39 37 35 31 29 29 28 27 27 26 28 24
15 12 9 9 7 7 9 13 17 19 20 23 24 26 29 33 38 44 46 49 51 55 56 58 57 52 49 47 47 45 44 42 41 36 33 31 29 30 31 31 30 33 27
16 14 12 6 3 3 8 12 16 22 28 31 33 35 37 39 42 46 51 55 56 61 64 65 68 66 63 56 54 52 49 49 45 35 32 31 29 31 33 30 32 31 29
18 13 10 11 4 2 7 16 25 29 32 33 36 37 39 42 45 47 49 53 54 58 65 70 72 75 79 71 62 56 57 55 47 39 39 38 37 36 34 36 36 35 33
16 18 17 11 7 5 15 22 28 31 35 39 42 46 50 51 52 58 63 57 61 63 67 70 70 73 76 74 71 68 68 58 51 53 51 45 42 42 38 37 39 40 38
Wind_Direction_850mb
311 290 270 265 248 220 217 201 199 203 206 212 216 212 218 216 215 215 218 218 229 246 243 241 234 235 236 240 243 243 257 265 263 258 257 252 253 254 251 250 254 246 246
2 352 271 253 194 191 179 187 201 197 195 204 211 220 221 217 221 221 227 228 225 240 242 241 241 237 245 251 248 256 264 262 255 252 255 254 234 220 252 250 255 245 241
19 33 56 70 18 155 166 173 185 189 202 211 211 219 226 217 224 230 226 231 238 237 237 241 241 242 245 251 252 255 258 258 255 253 247 208 206 215 212 226 238 238 242
37 49 63 65 64 90 130 181 179 181 189 204 208 221 223 222 223 234 230 229 230 233 237 243 244 243 248 254 255 265 269 266 261 260 252 249 242 183 174 237 237 233 238
38 43 55 63 70 70 82 100 117 135 158 190 211 218 218 222 222 217 212 225 229 239 245 244 245 249 256 259 257 240 334 33 330 58 36 45 336 320 273 238 235 240 245
38 41 62 40 66 70 67 82 77 71 76 79 122 163 193 180 205 205 201 212 226 253 256 243 225 226 231 252 257 272 290 313 305 342 339 4 336 306 289 248 238 243 235
23 32 29 58 56 53 58 67 70 59 58 52 73 81 89 92 115 105 135 138 134 150 81 135 72 79 345 335 339 355 351 335 1 6 33 33 294 283 285 273 255 227 238
29 38 42 55 59 62 56 62 71 65 47 47 55 63 67 73 69 71 62 83 81 67 45 15 8 1 8 3 344 19 343 20 9 24 98 212 266 272 272 267 252 239 249
26 35 30 36 55 69 71 71 75 71 67 49 46 49 55 51 50 48 50 43 51 55 35 7 358 341 336 321 317 308 280 280 281 279 277 266 257 253 257 258 260 269 276
40 41 47 48 49 44 41 51 53 71 75 68 63 61 58 51 54 38 49 20 44 45 345 320 300 286 285 288 289 287 286 274 270 268 261 259 256 256 263 264 262 267 254
50 51 57 56 58 56 53 59 65 66 59 30 32 32 27 30 20 8 13 340 353 319 303 297 289 279 273 273 279 280 274 263 253 250 245 252 258 267 276 282 288 282 273
59 53 51 53 54 53 51 51 53 50 55 50 50 40 20 24 21 16 7 357 2 353 343 325 312 300 288 277 271 262 257 255 256 254 248 253 270 287 293 297 302 291 276
61 61 58 53 52 51 51 50 48 45 45 43 46 42 30 29 32 34 24 14 11 6 3 358 351 338 324 317 309 309 304 291 277 272 275 282 299 305 315 318 313 306 291
71 67 61 54 51 52 47 47 45 42 40 37 35 34 29 27 23 17 16 13 15 11 8 6 358 349 348 342 337 328 315 293 282 286 296 304 315 321 320 322 319 306 295
68 54 53 53 54 54 51 47 44 38 35 33 31 30 23 20 19 16 11 4 359 357 355 352 348 342 337 329 320 308 302 298 299 294 292 299 301 310 314 310 302 296 288
82 46 39 40 40 43 40 38 36 36 31 29 28 27 23 18 15 10 4 358 355 353 349 345 339 333 328 321 312 306 301 293 286 285 291 292 302 312 310 305 301 293 284
88 34 39 36 33 34 30 27 25 26 26 24 24 24 21 17 16 12 5 355 348 341 335 328 321 318 316 311 304 298 293 289 286 283 284 293 300 305 304 301 296 291 282
121 63 46 39 32 24 15 11 10 15 19 20 21 21 22 19 16 10 2 355 348 339 331 323 317 313 309 304 301 296 290 288 289 291 296 299 301 299 297 294 292 287 278
144 61 69 51 22 9 6 4 2 10 10 11 11 10 11 11 10 8 3 354 344 334 326 319 311 304 300 293 286 280 275 274 277 283 291 293 294 293 292 288 287 274 267
156 153 169 359 14 20 24 19 13 10 8 10 4 358 357 356 354 352 349 344 339 332 323 316 310 303 299 294 287 279 271 271 283 287 287 289 290 290 291 287 276 270 261
167 165 151 126 81 39 22 20 18 10 10 5 356 348 335 332 332 333 334 332 329 325 321 315 308 302 296 290 282 275 271 276 285 286 288 287 284 277 270 268 267 263 252
164 155 152 164 250 296 336 344 348 357 356 352 345 337 329 324 320 319 316 315 314 312 309 305 299 296 290 286 280 276 275 279 279 282 282 281 281 275 271 266 262 261 260
177 177 188 209 257 333 360 7 2 356 352 347 337 329 325 320 316 314 312 308 304 300 299 297 297 294 291 285 279 271 268 271 274 277 275 275 272 272 270 265 260 259 259
188 198 206 205 135 34 351 349 347 346 341 338 338 335 329 326 320 314 311 307 306 302 300 297 295 294 290 285 279 271 267 264 265 257 262 269 271 273 278 268 264 264 256
197 200 184 145 146 286 342 340 341 340 337 337 334 329 324 320 319 315 315 313 314 308 303 299 294 289 285 285 282 274 263 258 262 253 249 256 264 269 275 275 268 263 256
199 177 160 168 175 328 343 345 338 337 340 341 337 333 329 324 323 324 323 322 320 317 311 306 299 293 286 283 278 274 272 268 251 251 249 252 262 268 273 279 277 271 259